Hereford, TX

3:54 PM CST on February 25, 2017 (GMT -0600)
Hereford Municipal

Weather History for KHRX - February, 2014

Change the Weather History Date:

Tuesday, February 18, 2014

  Actual Average (KAMA) Record (KAMA)
Temperature  
Mean Temperature 56 °F -  
Max Temperature 76 °F 53 °F 86 °F (2016)
Min Temperature 37 °F 28 °F 0 °F (1942)
Degree Days  
Heating Degree Days 8    
Growing Degree Days 6 (Base 50)    
Moisture  
Dew Point 12 °F    
Average Humidity 21    
Maximum Humidity 33    
Minimum Humidity 7    
Precipitation  
Precipitation 0.00 in - - ()
Sea Level Pressure  
Sea Level Pressure 29.96 in    
Wind  
Wind Speed 11 mph (West)    
Max Wind Speed 25 mph    
Max Gust Speed 29 mph    
Visibility 10 miles    
Events      
Averages and records for this station are not official NWS values.
T = Trace of Precipitation, MM = Missing Value Source: NWS Daily Summary

Daily Weather History Graph

Daily Weather History Graph

Search for Another Location

Airport or City:

Trip Planner

Search our weather history database for the weather conditions in past years. The results will help you decide how hot, cold, wet, or windy it might be!

Date:

Astronomy

Feb. 18, 2014 Rise Set
Actual Time 7:31 AM CST 6:35 PM CST
Civil Twilight 7:06 AM CST 7:00 PM CST
Nautical Twilight 6:36 AM CST 7:30 PM CST
Astronomical Twilight 6:07 AM CST 7:59 PM CST
Moon 10:19 PM CST (2/18) 9:15 AM CST (2/18)
Length of Visible Light 11h 54m
Length of Day
11h 03m
Waning Gibbous, 87% of the Moon is Illuminated
Feb 18
Waning Gibbous
Feb 22
Last Quarter
Mar 1
New
Mar 8
First Quarter
Mar 16
Full

Hourly Weather History & Observations

Time (CST) Temp. Windchill Dew Point Humidity Pressure Visibility Wind Dir Wind Speed Gust Speed Precip Events Conditions
12:15 AM 41.0 °F 34.7 °F 9.0 °F 27% 30.10 in 10.0 mi SSW 10.4 mph - N/A   Clear
12:35 AM 41.2 °F 36.0 °F 10.2 °F 28% 30.09 in 10.0 mi SSW 8.1 mph 16.1 mph N/A   Clear
12:55 AM 42.3 °F 35.9 °F 10.4 °F 27% 30.09 in 10.0 mi SSW 11.5 mph - N/A   Clear
1:15 AM 41.9 °F 35.4 °F 10.2 °F 27% 30.08 in 10.0 mi SSW 11.5 mph - N/A   Clear
1:35 AM 42.6 °F 34.9 °F 10.4 °F 27% 30.08 in 10.0 mi SSW 16.1 mph - N/A   Clear
1:55 AM 40.8 °F 34.1 °F 10.4 °F 29% 30.07 in 10.0 mi SSW 11.5 mph - N/A   Clear
2:15 AM 39.2 °F 33.0 °F 10.2 °F 30% 30.06 in 10.0 mi SSW 9.2 mph - N/A   Clear
2:35 AM 41.0 °F 35.2 °F 10.4 °F 29% 30.04 in 10.0 mi SSW 9.2 mph - N/A   Clear
2:55 AM 40.1 °F 33.6 °F 10.4 °F 30% 30.04 in 10.0 mi SSW 10.4 mph - N/A   Clear
3:15 AM 39.4 °F 33.2 °F 10.2 °F 30% 30.02 in 10.0 mi SSW 9.2 mph - N/A   Clear
3:35 AM 37.2 °F 32.6 °F 10.4 °F 33% 30.01 in 10.0 mi SW 5.8 mph - N/A   Clear
3:55 AM 39.4 °F 32.3 °F 10.9 °F 31% 29.99 in 10.0 mi SW 11.5 mph - N/A   Clear
4:15 AM 40.3 °F 33.9 °F 10.9 °F 30% 29.99 in 10.0 mi SW 10.4 mph - N/A   Clear
4:35 AM 41.0 °F 33.9 °F 11.3 °F 30% 29.98 in 10.0 mi SW 12.7 mph - N/A   Clear
4:55 AM 41.0 °F 32.5 °F 11.3 °F 30% 29.97 in 10.0 mi SW 17.3 mph 23.0 mph N/A   Clear
5:15 AM 41.2 °F 33.4 °F 12.2 °F 31% 29.98 in 10.0 mi SW 15.0 mph - N/A   Clear
5:35 AM 41.0 °F 33.1 °F 11.7 °F 30% 29.98 in 10.0 mi SW 15.0 mph - N/A   Clear
5:55 AM 41.4 °F 33.6 °F 12.2 °F 30% 29.98 in 10.0 mi SW 15.0 mph - N/A   Clear
6:15 AM 42.4 °F 35.3 °F 13.1 °F 30% 29.97 in 10.0 mi SW 13.8 mph - N/A   Clear
6:35 AM 42.8 °F 35.8 °F 13.5 °F 30% 29.97 in 10.0 mi SW 13.8 mph - N/A   Clear
6:55 AM 42.1 °F 35.2 °F 13.8 °F 32% 29.96 in 10.0 mi SW 12.7 mph - N/A   Clear
7:15 AM 43.0 °F 36.0 °F 14.9 °F 32% 29.95 in 10.0 mi SW 13.8 mph - N/A   Clear
7:35 AM 43.9 °F 37.5 °F 15.4 °F 32% 29.95 in 10.0 mi SW 12.7 mph - N/A   Clear
7:55 AM 45.9 °F 38.8 °F 16.7 °F 31% 29.95 in 10.0 mi SW 17.3 mph 24.2 mph N/A   Clear
8:15 AM 46.9 °F - 17.6 °F 31% 29.96 in 10.0 mi SW 15.0 mph - N/A   Clear
8:35 AM 46.8 °F - 17.8 °F 32% 29.97 in 10.0 mi WSW 15.0 mph 19.6 mph N/A   Clear
8:55 AM 46.9 °F - 17.6 °F 31% 29.98 in 10.0 mi WSW 11.5 mph - N/A   Clear
9:15 AM 50.7 °F - 19.0 °F 29% 29.97 in 10.0 mi SW 16.1 mph 21.9 mph N/A   Clear
9:35 AM 52.0 °F - 19.2 °F 28% 29.97 in 10.0 mi SW 19.6 mph 23.0 mph N/A   Clear
9:55 AM 54.1 °F - 19.8 °F 26% 29.95 in 10.0 mi SW 20.7 mph - N/A   Clear
10:15 AM 60.4 °F - 19.9 °F 21% 29.95 in 10.0 mi WSW 18.4 mph - N/A   Clear
10:35 AM 64.8 °F - 19.2 °F 17% 29.95 in 10.0 mi North - - N/A   Clear
10:55 AM 68.4 °F - 18.3 °F 15% 29.95 in 10.0 mi North - - N/A   Clear
11:15 AM 69.6 °F - 18.3 °F 14% 29.95 in 10.0 mi North - - N/A   Clear
11:35 AM 71.1 °F - 18.3 °F 14% 29.94 in 10.0 mi North - - N/A   Clear
11:55 AM 72.3 °F - 18.0 °F 13% 29.94 in 10.0 mi West 25.3 mph - N/A   Clear
12:15 PM 73.4 °F - 17.4 °F 12% 29.93 in 10.0 mi West 18.4 mph 28.8 mph N/A   Clear
12:35 PM 73.6 °F - 17.1 °F 12% 29.93 in 10.0 mi WNW 15.0 mph 27.6 mph N/A   Clear
12:55 PM 74.5 °F - 16.7 °F 11% 29.92 in 10.0 mi West 17.3 mph 25.3 mph N/A   Clear
1:15 PM 74.5 °F - 13.8 °F 10% 29.91 in 10.0 mi WNW 17.3 mph 25.3 mph N/A   Clear
1:35 PM 75.2 °F - 14.2 °F 10% 29.90 in 10.0 mi WNW 17.3 mph 23.0 mph N/A   Clear
1:55 PM 76.1 °F - 14.4 °F 10% 29.89 in 10.0 mi WNW 17.3 mph 23.0 mph N/A   Clear
2:15 PM 75.7 °F - 12.4 °F 9% 29.89 in 10.0 mi WNW 10.4 mph 21.9 mph N/A   Clear
2:35 PM 75.7 °F - 11.8 °F 9% 29.89 in 10.0 mi NW 13.8 mph 19.6 mph N/A   Clear
2:55 PM 76.1 °F - 12.9 °F 9% 29.89 in 10.0 mi West 9.2 mph 17.3 mph N/A   Clear
3:15 PM 76.5 °F - 10.0 °F 8% 29.89 in 10.0 mi NNW 10.4 mph 17.3 mph N/A   Clear
3:35 PM 76.3 °F - 9.0 °F 8% 29.89 in 10.0 mi NW 11.5 mph 17.3 mph N/A   Clear
3:55 PM 76.3 °F - 9.3 °F 8% 29.89 in 10.0 mi NNW 9.2 mph 16.1 mph N/A   Clear
4:15 PM 75.7 °F - 9.0 °F 8% 29.90 in 10.0 mi NNW 5.8 mph - N/A   Clear
4:35 PM 75.7 °F - 7.0 °F 7% 29.89 in 10.0 mi North 5.8 mph - N/A   Clear
4:55 PM 75.2 °F - 7.3 °F 7% 29.90 in 10.0 mi North 6.9 mph - N/A   Clear
5:15 PM 74.8 °F - 6.6 °F 7% 29.90 in 10.0 mi NNE 6.9 mph - N/A   Clear
5:35 PM 73.4 °F - 7.0 °F 8% 29.90 in 10.0 mi NNE 4.6 mph - N/A   Clear
5:55 PM 70.9 °F - 9.7 °F 9% 29.90 in 10.0 mi North 4.6 mph - N/A   Clear
6:15 PM 67.6 °F - 8.1 °F 10% 29.91 in 10.0 mi Calm Calm - N/A   Clear
6:35 PM 67.6 °F - 8.6 °F 10% 29.92 in 10.0 mi Calm Calm - N/A   Clear
6:55 PM 66.2 °F - 7.5 °F 10% 29.93 in 10.0 mi Calm Calm - N/A   Clear
7:15 PM 60.4 °F - 8.6 °F 13% 29.93 in 10.0 mi Calm Calm - N/A   Clear
7:35 PM 52.9 °F - 3.4 °F 13% 29.94 in 10.0 mi NNW 3.5 mph - N/A   Clear
7:55 PM 50.0 °F - 2.5 °F 14% 29.95 in 10.0 mi Calm Calm - N/A   Clear
8:15 PM 46.6 °F - 4.1 °F 18% 29.95 in 10.0 mi NNW 8.1 mph - N/A   Clear
8:35 PM 43.9 °F 41.3 °F 5.4 °F 21% 29.95 in 10.0 mi NNW 4.6 mph - N/A   Clear
8:55 PM 44.1 °F 40.8 °F 6.6 °F 22% 29.96 in 10.0 mi North 5.8 mph - N/A   Clear
9:15 PM 49.1 °F - 7.9 °F 19% 29.96 in 10.0 mi NNW 4.6 mph - N/A   Clear
9:35 PM 47.1 °F - 7.0 °F 20% 29.97 in 10.0 mi NNE 5.8 mph - N/A   Clear
9:55 PM 41.4 °F - 8.6 °F 26% 29.97 in 10.0 mi Calm Calm - N/A   Clear
10:15 PM 44.2 °F - 13.5 °F 29% 29.97 in 7.0 mi North - - N/A   Clear
10:35 PM 44.2 °F - 14.0 °F 30% 29.98 in 10.0 mi Calm Calm - N/A   Clear
10:55 PM 44.4 °F - 12.0 °F 27% 29.97 in 10.0 mi Calm Calm - N/A   Clear
11:55 PM 45.7 °F 40.6 °F 11.8 °F 25% 29.99 in 10.0 mi ENE 10.4 mph - N/A   Clear